COSMOS 80

Satellite information

Favourite Embed

Satellite Type and Status

PAYLOADIN ORBIT

Key statistics

Satellite COSMOS 80 at a glance.

Uptime

22021

Days in orbit

Revolutions

≈ 12.5

Per day

Orbit

LEO

Low Earth Orbit

Inclination

56.1

Latest

Satellite identification and parameters

Extended collection of information and parameters for COSMOS 80.

Object identification

Identified? True

Debris? False

Object name: COSMOS 80

International designator: 1965-070A

Object number (NORAD): 1570

Object ID (CCSDS): 1570

Country: COMMONWEALTH OF INDEPENDENT STATES (CIS)

Current information (Y/N): Y

RCS size: MEDIUM

Orbital parameters

Period: 114.943 minutes

Inclination: 56.0547 deg

SMA: 7830.952 km

Apoapsis: 1533.655 km

Periapsis: 1371.979 km

RAAN: 242.4959 deg

Eccentricy: 0.01032287

Argument of periapsis: 76.464 deg

Mean anomaly: 16.0696 deg

Mean motion: 12.52797577 rev/day

Mean motion (dot): -0.00000071 rev/day2

B* drag term: 0.00016268659 1/REarth

Two-line elements (TLE)

Creation date: Dec. 18, 2025, 2:19 a.m.

Reference frame: TEME

Reference center: EARTH

Epoch: Dec. 17, 2025, 9:26 p.m. UTC

TLE line 0: 0 COSMOS 80

TLE line 1: 1 01570U 65070A 25351.89318343 -.00000071 00000-0 16269-3 0 9992

TLE line 2: 2 01570 56.0547 242.4959 0103229 76.4640 16.0696 12.52797577758630

Live tracking on map

Real-time ground track for satellite COSMOS 80.

In-orbit conjunctions

A list of the most updated potential collisions computed for object COSMOS 80.

Target Orbit TCA Probability of collision Miss distance Type
DELTA 1 DEB SSO 2025-03-14 14:24:49 0.0001069371 731.0 (m) DEBRIS

Associated space launch

The Strela-1 satellites were prototype store-dump communications satellites for tactical communication.

COSMOS 80 was lifted into orbit during the mission ‘Kosmos 65S3 | Strela-1 20 to 24’, on board a Kosmos 65S3 space rocket.

The launch took place on Sept. 3, 1965, 2 p.m. from 41/15.

For more information about the launch, click the button.

Launch to space Kosmos 65S3 | Strela-1 20 to 24
Kosmos 65S3 | Strela-1 20 to 24

Agency: N/A

Status: Launch Successful

Launch date: Sept. 3, 1965, 2 p.m. UTC

Rocket: Kosmos 65S3

Launch pad: 41/15

Location: Baikonur Cosmodrome, Republic of Kazakhstan

...

Latest news about this satellite

There are no fresh news available about this satellite. Check back as we update our databases every day.


Newsletter sign-up

Weekly statistics, charts and insights to help you stay on top of the space industry.